Regional Weather Roundup
Issued by NWS Wakefield, VA

Home | Current Version | Previous Version | Text Only | Print | Product List | Glossary Off
Versions: 1 2 3 4 5 6 7 8 9 10 11 12 13 14 15 16 17 18 19 20 21 22 23 24 25 26 27 28 29 30 31 32 33 34 35 36 37 38 39 40 41 42 43 44 45 46 47 48 49 50

000
ASUS41 KAKQ 261914
RWRAKQ

REGIONAL WEATHER ROUNDUP
NATIONAL WEATHER SERVICE WAKEFIELD VA
300 PM EDT THU MAR 26 2015

Note: "fair" indicates few or no clouds below 12,000 feet with no
significant weather and/or obstructions to visibility. * = Denotes
station may not report precipitation (e.g., rain,snow,etc.),
thunder or fog.

VAZ042-051-052>054-056-262000-
NORTHERN VIRGINIA

CITY           SKY/WX    TMP DP  RH WIND       PRES   REMARKS
WASH NATIONAL  MOSUNNY   71  61  70 S10       29.68F
DULLES         MOSUNNY   72  57  59 S14G26    29.66F
FORT BELVOIR   SUNNY     69  60  71 S9G17     29.68F
QUANTICO       MOSUNNY   65  55  70 SW16      29.69F
FREDERICKSBRG* SUNNY     74  58  56 SW18G28   29.68F
STAFFORD*      MOSUNNY   71  55  57 S12G20    29.73F
WARRENTON      SUNNY     74  62  64 S12G18    29.67F
CULPEPER*      SUNNY     73  57  56 SW16G24   29.68F
MANASSAS*      MOSUNNY   72  57  60 S20       29.68F
LEESBURG*      MOSUNNY   73  59  60 S23G31    29.66F
WINCHESTER     MOSUNNY   73  50  43 SE16      29.61F
FRONT ROYAL*   FAIR      79  52  38 S10       29.60F
LURAY*         FAIR      81  54  39 S13G20    29.62F
$$

VAZ048-049-060>072-079>083-262000-
CENTRAL AND SOUTH CENTRAL VIRGINIA

CITY           SKY/WX    TMP DP  RH WIND       PRES   REMARKS
RICHMOND       PTSUNNY   75  60  59 S18       29.71F
CHESTERFIELD*  FAIR      77  50  38 S15G23    29.73F
PETERSBURG*    MOSUNNY   75  61  60 S10       29.74F
HANOVER        MOSUNNY   76  54  46 SW17G23   29.72F
TAPPAHANNOCK*  MOSUNNY   73  56  55 S14G21    29.72F
QUINTON*       CLOUDY    72  61  68 S9G24     29.73F
CHARLOTTSVILLE MOSUNNY   72  56  57 S15G23    29.68F
GORDONSVILLE*  FAIR      71  58  63 S15       29.68F
ORANGE*        MOSUNNY   70  57  64 S10G18    29.71F
LOUISA*        MOSUNNY   73  57  56 SW10G20   29.69F
BUMPASS*       FAIR      73  56  55 SW10G18   29.71F
FARMVILLE*     SUNNY     74  56  54 S16G23    29.71F
CREWE*         FAIR      75  53  46 MISG      29.73F
FORT PICKETT*  FAIR      75  56  51 SW18G25   29.74F
CHASE CITY*    FAIR      76  60  57 S7        29.75F
CLARKSVILLE*   FAIR      73  57  56 S13G22    29.75F
SOUTH HILL*    PTSUNNY   73  58  59 S15       29.81F
LAWRENCEVILLE* FAIR      74  58  58 MISG      29.75F
EMPORIA*       PTSUNNY   72  63  73 S12       29.78F
$$

VAZ088>098-262000-
SOUTHEAST VIRGINIA

CITY           SKY/WX    TMP DP  RH WIND       PRES   REMARKS
NORFOLK        LGT RAIN  68  62  81 S23G30    29.79F
VIRGINIA BEACH CLOUDY    73  64  73 S14G32    29.79F
NORFOLK NAVAL  RAIN      69  63  81 SW16G25   29.81F FOG
WEST POINT*    PTSUNNY   70  63  77 SE12G17   29.76F
SALUDA*        CLOUDY    64  62  93 S21G30    29.74F
NEWPORT NEWS   LGT RAIN  68  61  78 S15       29.79F
LANGLEY AFB    CLOUDY    64  61  88 SW14G21   29.77F
FORT EUSTIS    CLOUDY    64 N/A N/A S8        29.75F
WILLIAMSBURG*  PTSUNNY   68  64  88 S7G16     29.77F
HR EXEC AP*    CLOUDY    64  61  88 SW12G17   29.82F
FRANKLIN*      CLOUDY    67  60  78 SW9       29.77F
WAKEFIELD      PTSUNNY   70  60  70 S10G18    29.76F
$$

VAZ020-022-025-037-045-262000-
WEST CENTRAL AND SOUTHWEST VIRGINIA

CITY           SKY/WX    TMP DP  RH WIND       PRES   REMARKS
STAUNTON*      MOSUNNY   76  51  40 S12G18    29.66F
WAYNESBORO*    FAIR      72  55  53 S12G25    29.67F
HOT SPRINGS VA CLOUDY    65  43  45 W21G29    29.76F
LYNCHBURG      SUNNY     69  56  62 SW15      29.75F
DANVILLE       PTSUNNY   72  57  59 SW13G22   29.77F
SOUTH BOSTON*  FAIR      74  55  52 MISG      29.76F
MARTINSVILLE   PTSUNNY   70  55  58 SW8G18    29.80F
ROANOKE        PTSUNNY   71  54  54 SE14      29.73F
BLACKSBURG     CLOUDY    70  48  45 W12G21    29.78F
DUBLIN*        CLOUDY    70  51  51 SW14G24   29.78S
MARION*        CLOUDY    64  51  64 W16G28    29.83F
HILLSVILLE*    PTSUNNY   65  55  69 S5        29.81S
RICHLANDS*     CLOUDY    61  54  76 W8        29.80F
WISE*          PTSUNNY   66  50  55 SW23G32   29.80F
ABINGDON*      CLOUDY    66  56  69 W12G17    29.81F
$$

MDZ021>025-VAZ099-100-262000-
SOUTHERN MARYLAND AND THE DELMARVA PENINSULA

CITY           SKY/WX    TMP DP  RH WIND       PRES   REMARKS
PATUXENT RIVER PTSUNNY   69  60  73 S12       29.72F
BAY BRIDGE APT   N/A     66  61  82 S18G30    29.69F
LEONARDTOWN    MOSUNNY   70  59  68 S13G22    29.71F
DOVER          LGT RAIN  64  64 100 S21       29.67F
GEORGETOWN     LGT RAIN  64  61  90 S18G30    29.77F
EASTON         CLOUDY    66  64  94 S16G30    29.77F
CAMBRIDGE      CLOUDY    63  59  88 S13G22    29.72F
SALISBURY      LGT RAIN  63  60  90 SW14      29.77F
OCEAN CITY     CLOUDY    53  51  93 S10G22    29.81F FOG
WALLOPS ISLAND LGT RAIN  55  54  96 SW18      29.81F FOG
ACCOMACK*      CLOUDY    61  57  88 S12G18    29.79F
$$

NCZ012>017-030>032-262000-
NORTH CENTRAL AND EASTERN NORTH CAROLINA

CITY           SKY/WX    TMP DP  RH WIND       PRES   REMARKS
ROANOKE RAPIDS MOCLDY    68  61  77 S9        29.78F
RALEIGH        PTSUNNY   73  58  59 SW17G23   29.80F
ELIZABETH CITY CLOUDY    72  63  73 S15G31    29.80F
AHOSKIE*       CLOUDY    67  61  80 S5        29.79F
EDENTON*       CLOUDY    69  62  76 S17G26    29.80F
CURRITUCK*     LGT RAIN  71  61  70 S10G18    29.83F
KILL DEVIL HLS CLOUDY    69  62  78 S17G28    29.82F
MANTEO         CLOUDY    65  60  83 S32       29.84F
CAPE HATTERAS  CLOUDY    69  61  75 S26G41    29.88F
TARBORO*       CLOUDY    73  63  71 SW9       29.81F
GOLDSBORO      PTSUNNY   73  71  94 SW18G26   29.81F
WASHINGTON     PTSUNNY   67  65  94 SW8       29.82F FOG
GREENVILLE     PTSUNNY   70  64  83 SW8       29.84F
NEW BERN       PTSUNNY   77  55  46 SW15      29.84F
WILMINGTON     PTSUNNY   75  53  46 SW18G30   29.88F
$$

VAZ048-262000-
ELSEWHERE

CITY           SKY/WX    TMP DP  RH WIND       PRES   REMARKS
HARRISBURG PA  PTSUNNY   67  52  58 E8        29.63F
BALTIMORE      PTSUNNY   69  59  70 S13G21    29.67F
ANNAPOLIS      PTSUNNY   61  55  81 S14       29.69F
ANDREWS AFB    MOSUNNY   71  61  69 SW21      29.67F
PHILADELPHIA   CLOUDY    64  59  83 S15G21    29.70F
HENDERSON NC   PTSUNNY   74  53  47 S9        29.77F
GREENSBORO     PTSUNNY   71  56  58 SW14G21   29.80F
ROCKY MOUNT    PTSUNNY   72  62  71 SW13G21   29.81F
$$

VAZ100-262000-
MARINE

STATION/POSITION TIME  TEMP    WIND        PRES    WAVE   SWELL
                       AIR SEA DIR/SP/G            HT/PER HT/PER
                 (UTC) (F)     (DEG/KT/KT) (MB)    (FT/S) (FT/S)
BRANDYWINE LGT   1800   61 40  210/ 23/ 27 1009.0F
CAPE MAY NJ      1800   55 43  170/ 14/ 25 1009.2F
LEWES DE         1800   65 41  200/ 13/ 20 1009.2F
15NM E FENWICK I 1850   47 40              1009.3F   4/ 7
OCEAN-CITY-INLET 1800   46 40  210/ 13/ 16 1010.5F
WACHAPREAGUE VA  1800   55 49  220/ 13/ 18 1010.5F
THOMAS POINT MD  1900                        N/A
COVE POINT MD    1800   53     190/ 16/ 17 1008.1F
SOLOMONS ISLAND  1800      45                N/A
BISHOPS HEAD MD  1800   57 50  180/ 17/ 19 1008.8F
PINEY POINT MD   1812          190/ 12/ 12   N/A
CAMBRIDGE MD     1800   64 42  180/  7/ 15 1008.2F
LEWISETTA VA     1800   64 48              1008.0F
RAPPAHANNOCK LGT 1800          170/ 21/ 23 1010.1F
STINGRAY PT      1900   55 44  220/  8/  8   N/A     1/ 2
YORK RVR RNG VA  1800   59     220/ 17/ 20 1009.5F
YORKTOWN VA      1800   64 46  220/  7/ 12 1009.8F
DOMINION TERM VA 1800   64     210/ 18/ 21 1010.2F
KIPTOPEKE VA     1800      49  180/ 12/ 14   N/A
CHES BAY BRIDGE  1800   67 45  180/ 19/ 27 1009.5F
CAPE HENRY VA    1800   69     190/ 12/ 28 1009.0F
CHESAPEAKE LGHT  1800   54     210/ 21/ 25 1011.1F
WILLOUBY STN VA  1800   67     200/ 22/ 26 1010.5F
S CRANEY ISL VA  1800          190/ 16/ 22 1010.0F
CAPE HENRY BUOY  1828      43                N/A     5/ 7
1ST LANDING BUOY 1900   62     200/ 14/ 19 1008.5F   3/ 4
OFFSHORE WE BUOY 1811      40                N/A     6/ 7   3/ 7
64NM E OF VA BCH 1850   61 54  180/ 19/ 21 1010.8R   7/ 8   3/14
DUCK PIER NC     1800   68 43  180/ 21/ 28 1010.3F
44056 DUCK FRF   1811      44                N/A     5/ 7
OREGON INLET NC  1800   65 55  170/ 14/ 19 1012.0F
HATTERAS NC      1800   69 57  170/ 17/ 29 1013.7F
CAPE LOOKOUT NC  1900   65     180/ 16/ 17 1011.5F
$$


USA.gov is the U.S. government's official web portal to all federal, state and local government web resources and services.